DW7229 Weather Reports


Display with metric or nautical units.
time (UTC)temp
F
wind
direction
speed
MPH
gust
MPH
rain 1hr
in
rain 24hr
in
rain mn
in
humidity
%
barometer
mb
20260905212028 65 0.0 0.0 0.00 0.00 0.00 83 1011.1
20260905211031 65 0.0 0.0 0.00 0.00 0.00 82 1011.0
20260905210016 65 0.0 0.0 0.00 0.00 0.00 81 1011.1
20260905205019 66 0.0 0.0 0.00 0.00 0.00 79 1011.0
20260905204022 66 0.0 0.0 0.00 0.00 0.00 79 1011.1
20260905203026 66 0.0 0.0 0.00 0.00 0.00 78 1011.0
20260905202029 66 0.0 0.0 0.00 0.00 0.00 78 1011.0
20260905201032 66 0.0 0.0 0.00 0.00 0.00 77 1011.0
20260905200018 67 0.0 0.0 0.00 0.00 0.00 76 1011.1
20260905195021 68 0.0 0.0 0.00 0.00 0.00 71 1010.8
20260905194024 71 0.0 0.0 0.00 0.00 0.00 66 1010.6
20260905193027 71 0.0 0.0 0.00 0.00 0.00 65 1010.4
20260905192025 71 0.0 0.0 0.00 0.00 0.00 66 1010.3
20260905191016 72 0.0 0.0 0.00 0.00 0.00 63 1010.3
20260905190019 73 0.0 0.0 0.00 0.00 0.00 64 1010.3
20260905185017 72 0.0 0.0 0.00 0.00 0.00 64 1010.2
20260905184026 74 0.0 0.0 0.00 0.00 0.00 62 1010.1
20260905183029 76 153 0.0 2.0 0.00 0.00 0.00 60 1010.2
20260905182033 76 180 0.0 3.0 0.00 0.00 0.00 60 1010.2
20260905181018 76 0.0 0.0 0.00 0.00 0.00 59 1010.2
20260905180021 73 148 0.0 2.0 0.00 0.00 0.00 63 1010.3
20260905175024 73 0.0 0.0 0.00 0.00 0.00 64 1010.3
20260905174028 72 0.0 0.0 0.00 0.00 0.00 65 1010.1
20260905173031 73 113 0.0 1.0 0.00 0.00 0.00 61 1010.1
20260905172057 73 0.0 0.0 0.00 0.00 0.00 61 1010.0
20260905171019 73 128 1.0 4.0 0.00 0.00 0.00 64 1009.9
20260905170023 72 0.0 0.0 0.00 0.00 0.00 63 1010.0
20260905165026 74 164 0.0 3.0 0.00 0.00 0.00 62 1010.0
20260905164029 73 0.0 0.0 0.00 0.00 0.00 60 1009.9
20260905163035 74 0.0 0.0 0.00 0.00 0.00 58 1009.9
20260905162018 76 0.0 0.0 0.00 0.00 0.00 58 1010.0
20260905161021 75 158 0.0 1.0 0.00 0.00 0.00 60 1010.0
20260905160025 74 0.0 0.0 0.00 0.00 0.00 61 1010.0
20260905155048 73 0.0 0.0 0.00 0.00 0.00 62 1009.9
20260905154025 74 0.0 0.0 0.00 0.00 0.00 59 1010.1
20260905153017 73 0.0 0.0 0.00 0.00 0.00 62 1010.1
20260905152100 73 0.0 0.0 0.00 0.00 0.00 63 1010.0
20260905151017 72 0.0 0.0 0.00 0.00 0.00 64 1010.0
20260905150026 71 0.0 0.0 0.00 0.00 0.00 65 1010.1
20260905145030 72 0.0 0.0 0.00 0.00 0.00 65 1009.9
20260905144015 71 0.0 0.0 0.00 0.00 0.00 65 1010.1
20260905143038 70 0.0 0.0 0.00 0.00 0.00 66 1010.1
20260905142021 70 0.0 0.0 0.00 0.00 0.00 67 1010.1
20260905141025 71 0.0 0.0 0.00 0.00 0.00 66 1009.9
20260905140028 69 0.0 0.0 0.00 0.00 0.00 68 1010.0
20260905135031 69 0.0 0.0 0.00 0.00 0.00 68 1009.7
20260905134017 69 0.0 0.0 0.00 0.00 0.00 71 1009.7
20260905133020 68 0.0 0.0 0.00 0.00 0.00 71 1009.6
20260905132023 68 0.0 0.0 0.00 0.00 0.00 71 1009.5
20260905131026 67 0.0 0.0 0.00 0.00 0.00 73 1009.5
20260905130030 67 0.0 0.0 0.00 0.00 0.00 73 1009.6
20260905125015 67 0.0 0.0 0.00 0.00 0.00 75 1009.5
20260905124018 66 0.0 0.0 0.00 0.00 0.00 76 1009.4
20260905123022 66 0.0 0.0 0.00 0.00 0.00 76 1009.3
20260905122025 66 0.0 0.0 0.00 0.00 0.00 76 1009.2
20260905121028 65 0.0 0.0 0.00 0.00 0.00 77 1008.9
20260905120025 65 0.0 0.0 0.00 0.00 0.00 78 1008.9
20260905115037 64 0.0 0.0 0.00 0.00 0.00 78 1008.8
20260905114020 64 270 0.0 1.0 0.00 0.00 0.00 78 1008.7
20260905113017 64 0.0 0.0 0.00 0.00 0.00 78 1008.7
20260905112047 63 0.0 0.0 0.00 0.00 0.00 79 1008.7
20260905111030 63 0.0 0.0 0.00 0.00 0.00 79 1008.8
20260905110015 62 0.0 0.0 0.00 0.00 0.00 80 1008.5
20260905105039 62 0.0 0.0 0.00 0.00 0.00 80 1008.6
20260905104021 62 0.0 0.0 0.00 0.00 0.00 80 1008.4
20260905103025 61 0.0 0.0 0.00 0.00 0.00 79 1008.4
20260905102028 61 0.0 0.0 0.00 0.00 0.00 79 1008.4
20260905101052 61 0.0 0.0 0.00 0.00 0.00 79 1008.3
20260905100017 62 0.0 0.0 0.00 0.00 0.00 79 1008.1
20260905095020 62 0.0 0.0 0.00 0.00 0.00 79 1008.3
20260905094044 62 0.0 0.0 0.00 0.00 0.00 79 1008.1
20260905093027 62 0.0 0.0 0.00 0.00 0.00 79 1008.0
20260905092030 62 0.0 0.0 0.00 0.00 0.00 79 1008.1
20260905091036 62 0.0 0.0 0.00 0.00 0.00 78 1008.2
20260905090019 62 0.0 0.0 0.00 0.00 0.00 78 1007.9
20260905085022 62 0.0 0.0 0.00 0.00 0.00 78 1007.9
20260905084025 62 0.0 0.0 0.00 0.00 0.00 78 1007.9
20260905083029 62 0.0 0.0 0.00 0.00 0.00 78 1008.0
20260905082026 62 0.0 0.0 0.00 0.00 0.00 78 1008.0
20260905081017 62 0.0 0.0 0.00 0.00 0.00 78 1007.8
20260905080021 62 0.0 0.0 0.00 0.00 0.00 78 1007.7
20260905075018 62 0.0 0.0 0.00 0.00 0.00 78 1007.8
20260905074015 62 0.0 0.0 0.00 0.00 0.00 78 1007.9
20260905073031 62 0.0 0.0 0.00 0.00 0.00 78 1008.0
20260905072016 62 0.0 0.0 0.00 0.00 0.00 77 1008.0
20260905071019 62 0.0 0.0 0.00 0.00 0.00 77 1008.2
20260905070043 63 0.0 0.0 0.00 0.00 0.00 77 1008.2
20260905065026 63 0.0 0.0 0.00 0.00 0.00 77 1008.2
20260905064029 63 0.0 0.0 0.00 0.00 0.00 77 1008.3
20260905063033 64 0.0 0.0 0.00 0.00 0.00 77 1008.4
20260905062018 64 0.0 0.0 0.00 0.00 0.00 77 1008.4
20260905061041 64 0.0 0.0 0.00 0.00 0.00 77 1008.4
20260905060045 64 0.0 0.0 0.00 0.00 0.00 77 1008.4
20260905055028 64 0.0 0.0 0.00 0.00 0.00 77 1008.5
20260905054031 64 0.0 0.0 0.00 0.00 0.00 77 1008.5
20260905053016 64 0.0 0.0 0.00 0.00 0.00 76 1008.5
20260905052020 64 0.0 0.0 0.00 0.00 0.00 76 1008.6
20260905051023 64 0.0 0.0 0.00 0.00 0.00 77 1008.4
20260905050026 63 0.0 0.0 0.00 0.00 0.00 78 1008.3
20260905045030 63 0.0 0.0 0.00 0.00 0.00 78 1008.3
20260905044015 63 0.0 0.0 0.00 0.00 0.00 78 1008.4
20260905043018 63 0.0 0.0 0.00 0.00 0.00 78 1008.5
20260905042022 63 0.0 0.0 0.00 0.00 0.00 77 1008.5
20260905041019 63 0.0 0.0 0.00 0.00 0.00 77 1008.5
20260905040016 63 0.0 0.0 0.00 0.00 0.00 76 1008.4
20260905035052 64 0.0 0.0 0.00 0.00 0.00 76 1008.4
20260905034017 64 0.0 0.0 0.00 0.00 0.00 76 1008.4
20260905033020 65 0.0 0.0 0.00 0.00 0.00 76 1008.5
20260905032023 65 0.0 0.0 0.00 0.00 0.00 76 1008.7
20260905031027 65 0.0 0.0 0.00 0.00 0.00 75 1008.6
20260905030030 65 0.0 0.0 0.00 0.00 0.00 75 1008.7
20260905025015 65 0.0 0.0 0.00 0.00 0.00 74 1008.7
20260905024019 65 0.0 0.0 0.00 0.00 0.00 74 1008.8
20260905023022 65 0.0 0.0 0.00 0.00 0.00 73 1008.8
20260905022045 65 0.0 0.0 0.00 0.00 0.00 73 1008.8
20260905021028 65 0.0 0.0 0.00 0.00 0.00 73 1009.1
20260905020032 65 0.0 0.0 0.00 0.00 0.00 74 1009.0
20260905015017 66 0.0 0.0 0.00 0.00 0.00 74 1009.0
20260905014020 66 0.0 0.0 0.00 0.00 0.00 72 1009.1
20260905013044 66 0.0 0.0 0.00 0.00 0.00 72 1009.2
20260905012027 66 0.0 0.0 0.00 0.00 0.00 72 1009.2
20260905011030 67 0.0 0.0 0.00 0.00 0.00 72 1009.2
20260905010015 67 0.0 0.0 0.00 0.00 0.00 73 1009.1
20260905005019 68 0.0 0.0 0.00 0.00 0.00 73 1009.0
20260905004022 68 0.0 0.0 0.00 0.00 0.00 73 1009.0
20260905003019 68 0.0 0.0 0.00 0.00 0.00 72 1009.1
20260905002017 69 0.0 0.0 0.00 0.00 0.00 72 1009.1
20260905001032 69 0.0 0.0 0.00 0.00 0.00 73 1008.9
20260905000037 70 0.0 0.0 0.00 0.00 0.00 67 1008.7
20260904235020 70 0.0 0.0 0.00 0.00 0.00 66 1008.4
20260904234024 71 0.0 0.0 0.00 0.00 0.00 66 1008.4
20260904233027 72 0.0 0.0 0.00 0.00 0.00 64 1008.4
20260904232050 73 0.0 0.0 0.00 0.00 0.00 63 1008.4
20260904231016 74 0.0 0.0 0.00 0.00 0.00 63 1008.3
20260904230019 75 0.0 0.0 0.00 0.00 0.00 62 1008.4
20260904225022 75 0.0 0.0 0.00 0.00 0.00 63 1008.4
20260904224045 76 0.0 0.0 0.00 0.00 0.00 60 1008.2
20260904223029 78 0.0 0.0 0.00 0.00 0.00 59 1008.1
20260904222052 79 0.0 0.0 0.00 0.00 0.00 56 1007.9
20260904221017 79 0.0 0.0 0.00 0.00 0.00 51 1008.0
20260904220021 80 0.0 0.0 0.00 0.00 0.00 50 1007.9
20260904215024 80 0.0 0.0 0.00 0.00 0.00 48 1007.9
20260904214027 83 0.0 2.0 0.00 0.00 0.00 45 1008.1
20260904213031 83 338 0.0 1.0 0.00 0.00 0.00 46 1008.1